#timestamp,LO_Frequency,Hit,StdDev 
1578157215.8,286047000.6,N
1578157235.6,286047000.9,N
1578157255.5,286046998.5,N
1578157275.3,286046997.3,N
1578157295.2,286046995.3,N
1578157315.9,286046999.1,N
1578157335.7,286047000.8,N
1578157355.6,286046998.6,N
1578157375.4,286046999.8,N
1578157395.2,286047002.4,N
1578157415.1,286046999.8,N
1578157416.0,286046999.8,N
1578157435.8,286047001.9,N
1578157455.7,286046999.7,N
1578157475.5,286047000.1,N
1578157495.3,286046998.4,N
1578157515.2,286046998.6,N
1578157535.9,286046999.5,N
1578157555.7,286046996.6,N
1578157575.6,286046997.2,N
1578157595.4,286046999.6,N
1578157615.2,286046999.4,N
1578157635.1,286046999.1,N
1578157636.0,286046999.1,N
1578157655.8,286046998.1,N
1578157675.7,286047004.4,N
1578157695.5,286047004.4,N
1578157715.3,286047004.1,N
1578157735.2,286047002.5,N
1578157755.0,286047000.6,N
1578157755.9,286047000.6,N
1578157775.8,286047003.6,N
1578157795.6,286047004.0,N
1578157815.4,286047001.0,N
1578157835.3,286047000.2,N
1578157855.1,286046998.8,N
1578157875.8,286046999.1,N
1578157895.7,286046997.4,N
1578157915.5,286046996.2,N
1578157935.4,286046995.5,N
1578157955.2,286046997.0,N
1578157975.0,286046995.6,N
1578157975.9,286046995.6,N
1578157995.8,286046995.3,N
1578158015.6,286046995.1,N
1578158035.4,286046997.4,N
1578158055.3,286046994.9,N
1578158075.1,286046996.4,N
1578158095.9,286046999.4,N
1578158115.7,286047000.6,N
1578158135.5,286047002.1,N
1578158155.4,286046998.4,N
1578158175.2,286046996.9,N
1578158195.0,286046997.1,N
1578158195.9,286046997.1,N
1578158215.8,286046995.7,N
1578158235.6,286046995.3,N
1578158255.5,286046999.6,N
1578158275.3,286046995.5,N
1578158295.1,286046994.1,N
1578158315.9,286046990.5,Y
1578158335.7,286046991.8,P
1578158355.5,286046993.8,N
1578158375.4,286046993.5,N
1578158395.2,286046994.7,N
1578158415.1,286046994.2,N
1578158416.0,286046994.2,Y
1578158435.8,286047000.8,P
1578158455.6,286047003.1,N
1578158475.5,286047004.2,N
1578158495.3,286047003.1,N
1578158515.2,286047001.4,N
1578158535.9,286047003.2,N
1578158555.7,286047009.1,N
1578158575.6,286047009.2,N
1578158595.4,286047007.0,N
1578158615.2,286047005.4,N
1578158635.1,286047003.8,N
1578158636.0,286047003.8,N
1578158655.8,286047007.1,N
1578158675.7,286047006.8,N
1578158695.5,286047004.8,N
1578158715.3,286047004.5,N
1578158735.2,286047007.3,N
1578158755.0,286047007.6,N
1578158755.9,286047007.6,N
1578158775.7,286047009.0,N
1578158795.6,286047009.6,N
1578158815.4,286047008.5,N
1578158835.3,286047010.1,N
1578158855.1,286047008.4,N
1578158856.0,286047008.4,N
1578158875.8,286047004.8,N
1578158895.7,286047004.9,N
1578158915.5,286047008.9,N
1578158935.3,286047008.7,N
1578158955.2,286047005.0,N
1578158975.0,286047004.6,N
1578158975.9,286047004.6,N
1578158995.8,286047006.7,N
1578159015.6,286047008.1,Y
1578159035.4,286047002.3,P
1578159055.3,286047000.3,N
1578159075.1,286047003.6,N
1578159095.8,286047002.1,N
1578159115.7,286047000.5,N
1578159135.5,286046996.8,N
1578159155.4,286046998.5,N
1578159175.2,286047001.1,N
1578159195.0,286047002.2,N
1578159195.9,286047002.2,N
1578159215.8,286047004.3,N
1578159235.6,286047000.6,N
1578159255.4,286046996.9,N
1578159275.3,286046999.4,N
1578159295.1,286046999.2,N
1578159315.9,286047001.8,N
1578159335.7,286047001.8,N
1578159355.5,286047001.5,N
1578159375.4,286047001.3,N
1578159395.2,286047002.0,N
1578159415.0,286047000.1,N
1578159415.9,286047000.1,N
1578159435.8,286046999.9,N
1578159455.6,286047000.2,N
1578159475.5,286047000.2,N
1578159495.3,286047000.4,N
1578159515.1,286046998.3,N
1578159535.9,286046997.5,N
1578159555.7,286046997.5,N
1578159575.5,286046997.6,N
1578159595.4,286046996.2,N
1578159615.2,286046996.4,N
1578159635.1,286046995.2,N
1578159636.0,286046995.2,N
1578159655.8,286046995.3,N
1578159675.6,286046997.8,N
1578159695.5,286046995.5,N
1578159715.3,286046997.4,N
1578159735.1,286046999.3,N
1578159755.9,286046997.1,N
1578159775.7,286046999.1,N
1578159795.6,286047000.9,N
1578159815.4,286047002.0,N
1578159835.2,286047000.0,N
1578159855.1,286046999.8,N
1578159856.0,286046999.8,N
1578159875.8,286047001.1,N
1578159895.7,286046997.6,N
1578159915.5,286046998.0,N
1578159935.3,286046997.6,N
1578159955.2,286046996.8,N
1578159975.0,286046999.2,N
1578159975.9,286046999.2,N
1578159995.8,286046997.9,N
1578160015.6,286046997.6,N
1578160035.4,286046995.4,N
1578160055.3,286046994.9,N
1578160075.1,286046997.7,N
1578160095.8,286046996.6,N
1578160115.7,286046995.3,N
1578160135.5,286046997.8,N
1578160155.4,286046999.2,N
1578160175.2,286047000.3,N
1578160195.0,286047004.0,N
1578160195.9,286047004.0,N
1578160215.8,286047005.2,N
1578160235.6,286047005.6,N
1578160255.5,286047005.8,N
1578160275.3,286047003.7,N
1578160295.1,286047001.5,N
1578160315.9,286046999.7,N
1578160335.7,286047004.4,N
1578160355.5,286047001.3,N
1578160375.4,286047000.1,N
1578160395.2,286047000.1,N
1578160415.1,286046999.7,N
1578160416.0,286046999.7,N
1578160435.8,286047000.3,N
1578160455.6,286046998.1,N
1578160475.5,286046999.0,N
1578160495.3,286046998.4,N
1578160515.1,286046999.1,N
1578160535.9,286047002.0,N
1578160555.7,286046999.8,N
1578160575.6,286047000.2,N
1578160595.4,286047007.5,N
1578160615.2,286047005.6,N
1578160635.1,286047000.6,N
1578160636.0,286047000.6,N
1578160655.8,286046997.2,N
1578160675.6,286046998.0,N
1578160695.5,286047011.9,Y
1578160715.3,286046995.5,P
1578160735.2,286046995.8,N
1578160755.9,286046997.1,N
1578160775.7,286046999.3,N
1578160795.6,286047001.1,N
